{"data":{"norad_id":51639,"epoch":"2026-09-19T06:22:29.809056Z","epoch_age_seconds":132273,"freshness":"FRESH","line1":"1 51639U 22012T   26262.26562279 -.00000396  00000+0 -11698-2 0  9994","line2":"2 51639  87.8908  17.5314 0001625 104.2514 255.8793 13.10370452221660","mean_motion":13.10370452,"eccentricity":0.0001625,"inclination_deg":87.8908,"raan_deg":17.5314,"arg_perigee_deg":104.2514,"mean_anomaly_deg":255.8793,"bstar":-0.0011698,"rev_number":22166,"period_min":109.8925878405,"perigee_km":1220.4913173015,"apogee_km":1222.9612728724,"semimajor_km":7599.863295087,"source":"CELESTRAK","updated_at":"2026-09-20T09:00:44.711303Z"}}